Station TOKW1 - 9440910 - Toke Point, WA Image indicating link to RSS feed of recent meteorological observations for station TOKW1


Conditions at TOKW1 as of
(9:30 pm PDT on 07/18/2024)
0430 GMT on 07/19/2024:
     

Click on the graph icon in the table below to see a time series plot of the last five days of that observation.

5-day plot - Wind Direction Wind Direction (WDIR):WSW ( 240 deg true )
5-day plot - Wind Speed Wind Speed (WSPD): 5.1 kts
5-day plot - Wind Gust Wind Gust (GST): 7.0 kts
5-day plot - Atmospheric Pressure Atmospheric Pressure (PRES):30.15 in
5-day plot - Air Temperature Air Temperature (ATMP): 56.3 °F
5-day plot - Water Temperature Water Temperature (WTMP): 62.2 °F
5-day plot - Wind Speed at 10 Meters Wind Speed at 10 meters (WSPD10M): 5.8 kts
5-day plot - Wind Speed at 20 Meters Wind Speed at 20 meters (WSPD20M): 5.8 kts
5-day plot -  Wind Speed, Wind Gust and Atmospheric Pressure Combined plot of Wind Speed, Gust, and Air Pressure
NOS Water Level Observation Network Water Level
Previous observations
TIME
(PDT)
5-day plot - Wind Direction
WDIR
 
5-day plot - Wind Speed
WSPD
kts
5-day plot - Wind Gust
GST
kts
5-day plot - Wave Height
WVHT
ft
5-day plot - Dominant Wave Period
DPD
sec
5-day plot - Average Wave Period
APD
sec
5-day plot - Mean Wave Direction
MWD
 
5-day plot - Atmospheric Pressure
PRES
in
5-day plot - Pressure Tendency
PTDY
in
5-day plot - Air Temperature
ATMP
°F
5-day plot - Water Temperature
WTMP
°F
5-day plot - Dew Point
DEWP
°F
5-day plot - Salinity
SAL
psu
5-day plot - Visibility
VIS
nmi
5-day plot - Tide (above MLLW)
TIDE
ft
2024-07-18 09:24 pmWSW 5.1 7.0----30.15- 56.7 62.4----
2024-07-18 09:18 pm W 4.1 6.0----30.14- 57.0 62.4----
2024-07-18 09:12 pm W 2.9 6.0----30.15- 57.0 62.4----
2024-07-18 09:06 pm W 5.1 6.0----30.15- 56.8 62.4----
2024-07-18 09:00 pm W 4.1 5.1----30.14+0.01 56.7 62.4----
2024-07-18 08:54 pm W 4.1 5.1----30.14- 56.8 62.2----
2024-07-18 08:48 pm W 5.1 6.0----30.14- 56.8 62.2----
2024-07-18 08:42 pm W 4.1 5.1----30.14- 56.8 62.1----
2024-07-18 08:36 pm W 4.1 5.1----30.14- 57.0 62.1----
2024-07-18 08:30 pm W 2.9 6.0----30.14- 57.0 62.1----
2024-07-18 08:24 pm W 4.1 7.0----30.14- 57.0 62.2----
2024-07-18 08:18 pmWSW 5.1 6.0----30.14- 57.0 62.2----
2024-07-18 08:12 pm W 5.1 6.0----30.13- 57.4 62.1----
2024-07-18 08:06 pm W 6.0 8.9----30.13- 57.4 62.1----
2024-07-18 08:00 pm W 7.0 8.9----30.13-0.01 57.2 62.1----
2024-07-18 07:54 pm W 7.0 8.0----30.13- 57.7 62.1----
2024-07-18 07:48 pm W 5.1 8.0----30.13- 58.1 62.1----
2024-07-18 07:42 pm W 5.1 7.0----30.13- 57.9 62.1----
2024-07-18 07:36 pm W 5.1 7.0----30.13- 57.9 62.1----
2024-07-18 07:30 pm W 6.0 7.0----30.13- 58.1 61.9----
2024-07-18 07:24 pmWSW 4.1 6.0----30.13- 58.3 61.9----
2024-07-18 07:18 pm W 5.1 7.0----30.13- 58.6 62.1----
2024-07-18 07:12 pmWNW 5.1 8.0----30.13- 58.5 62.1----
2024-07-18 07:06 pmWNW 6.0 8.0----30.13- 58.8 62.2----
2024-07-18 07:00 pm W 5.1 7.0----30.13-0.01 59.0 62.1----
2024-07-18 06:54 pm W 6.0 8.0----30.13- 59.4 62.1----
2024-07-18 06:48 pm W 6.0 8.0----30.14- 59.7 62.1----
2024-07-18 06:42 pm W 7.0 8.0----30.14- 59.9 62.1----
2024-07-18 06:36 pm W 6.0 8.9----30.14- 59.9 62.1----
2024-07-18 06:30 pm W 6.0 9.9----30.14- 59.9 62.1----
2024-07-18 06:24 pm W 7.0 9.9----30.13- 60.1 62.1----
2024-07-18 06:18 pm W 7.0 9.9----30.13- 60.4 61.9----
2024-07-18 06:12 pm W 8.0 12.0----30.13- 60.6 61.7----
2024-07-18 06:06 pm W 8.0 12.0----30.13- 60.8 61.7----
2024-07-18 06:00 pm W 7.0 9.9----30.13-0.01 61.7 61.5----
2024-07-18 05:54 pm W 7.0 11.1----30.14- 61.9 61.5----
2024-07-18 05:48 pm W 8.0 11.1----30.14- 62.1 61.5----
2024-07-18 05:42 pmWSW 8.0 9.9----30.14- 62.2 61.5----
2024-07-18 05:36 pmWSW 8.0 9.9----30.14- 62.1 61.5----
2024-07-18 05:30 pmWSW 8.0 9.9----30.14- 62.2 61.5----
2024-07-18 05:24 pmWSW 7.0 9.9----30.14- 62.4 61.3----
2024-07-18 05:18 pmWSW 7.0 9.9----30.14- 62.4 61.3----
2024-07-18 05:12 pmWSW 8.0 9.9----30.14- 62.4 61.5----
2024-07-18 05:06 pmWSW 7.0 8.0----30.14- 62.6 61.5----
2024-07-18 05:00 pmWSW 6.0 8.9----30.14+0.00 62.6 61.7----
2024-07-18 04:54 pmWSW 6.0 8.9----30.14- 62.1 62.1----
2024-07-18 04:48 pmWSW 7.0 8.9----30.14- 62.2 61.9----
2024-07-18 04:42 pmWSW 7.0 8.9----30.14- 62.1 61.5----
2024-07-18 04:36 pmWSW 8.0 9.9----30.14- 62.1 61.3----
2024-07-18 04:30 pmWSW 8.0 9.9----30.14- 61.9 61.3----
2024-07-18 04:24 pmWSW 7.0 9.9----30.14- 62.2 61.3----
2024-07-18 04:18 pmWSW 6.0 8.9----30.14- 62.1 61.5----
2024-07-18 04:12 pmWSW 8.0 9.9----30.14- 61.5 61.9----
2024-07-18 04:06 pmWSW 8.0 11.1----30.14- 61.3 62.4----
2024-07-18 04:00 pmWSW 7.0 9.9----30.14+0.00 61.5 62.1----
2024-07-18 03:54 pmWSW 8.0 11.1----30.14- 61.5 61.2----
2024-07-18 03:48 pmWSW 8.0 11.1----30.14- 61.2 61.0----
2024-07-18 03:42 pmWSW 8.0 11.1----30.14- 61.2 61.0----
2024-07-18 03:36 pmWSW 8.9 11.1----30.14- 61.2 61.0----
2024-07-18 03:30 pmWSW 8.0 12.0----30.14- 61.3 61.0----
2024-07-18 03:24 pmWSW 8.9 12.0----30.14- 61.3 61.2----
2024-07-18 03:18 pmWSW 8.9 12.0----30.14- 61.3 61.2----
2024-07-18 03:12 pmWSW 8.9 13.0----30.14- 61.2 61.2----
2024-07-18 03:06 pmWSW 8.9 12.0----30.14- 61.2 61.2----
2024-07-18 03:00 pmWSW 8.0 12.0----30.14+0.00 61.3 61.0----
2024-07-18 02:54 pm W 8.9 12.0----30.14- 61.2 61.2----
2024-07-18 02:48 pm W 7.0 12.0----30.14- 61.7 61.0----
2024-07-18 02:42 pm W 8.0 13.0----30.14- 61.2 60.8----
2024-07-18 02:36 pmWSW 8.0 12.0----30.14- 61.3 60.8----
2024-07-18 02:30 pm W 8.0 12.0----30.14- 60.8 60.8----
2024-07-18 02:24 pm W 8.0 12.0----30.14- 60.8 60.6----
2024-07-18 02:18 pmWSW 7.0 9.9----30.14- 60.8 60.6----
2024-07-18 02:12 pmWSW 8.0 12.0----30.14- 60.6 60.6----
2024-07-18 02:06 pm W 9.9 11.1----30.14- 59.9 60.6----
2024-07-18 02:00 pmWSW 8.0 12.0----30.14- 60.8 60.6----
2024-07-18 01:54 pm W 8.9 13.0----30.14- 60.6 60.6----
2024-07-18 01:48 pm W 8.9 12.0----30.14- 60.8 60.4----
2024-07-18 01:42 pmWSW 8.9 12.0----30.14- 60.8 60.3----
2024-07-18 01:36 pmWSW 8.0 9.9----30.14- 60.4 60.3----
2024-07-18 01:30 pmWSW 7.0 11.1----30.14- 61.3 60.3----
2024-07-18 01:24 pmWSW 6.0 8.9----30.14- 60.8 60.3----
2024-07-18 01:18 pmWSW 7.0 8.9----30.14- 60.1 60.1----
2024-07-18 01:12 pmWSW 6.0 9.9----30.14- 60.4 60.1----
2024-07-18 01:06 pmWSW 6.0 8.9----30.14- 61.0 59.9----
2024-07-18 01:00 pmWSW 8.0 8.9----30.14- 60.8 59.9----
2024-07-18 12:54 pmWSW 5.1 7.0----30.14- 61.0 59.9----
2024-07-18 12:48 pmWSW 6.0 7.0----30.14- 60.8 59.9----
2024-07-18 12:42 pmWSW 6.0 8.0----30.14- 60.6 59.9----
2024-07-18 12:36 pmWSW 6.0 8.9----30.14- 60.4 59.9----
2024-07-18 12:30 pm-------30.14-------
2024-07-18 12:24 pm-------30.14-------
2024-07-18 12:18 pm-------30.14-------
2024-07-18 12:12 pm-------30.14-------
2024-07-18 12:06 pm-------30.14-------
2024-07-18 12:00 pm-------30.14-0.01------
2024-07-18 11:54 am-------30.14-------
2024-07-18 11:48 am-------30.14-------
2024-07-18 09:30 am-------30.16-- 61.0----
2024-07-18 09:24 amSSW 8.0 11.1----30.16- 58.3 61.0----
2024-07-18 09:18 am S 11.1 12.0----30.16- 58.1 60.6----
2024-07-18 09:12 am S 9.9 12.0----30.16- 57.9 60.3----
2024-07-18 09:06 am S 8.9 12.0----30.16- 58.1 60.3----
2024-07-18 09:00 am S 9.9 11.1----30.16+0.03 57.9 60.4----
2024-07-18 08:54 am S 8.0 12.0----30.16- 57.7 60.1----
2024-07-18 08:48 am S 9.9 11.1----30.16- 57.9 59.9----
2024-07-18 08:42 am S 11.1 13.0----30.15- 57.7 59.4----
2024-07-18 08:36 am S 8.0 13.0----30.15- 57.7 59.4----
2024-07-18 08:30 am S 9.9 13.0----30.15- 57.7 59.2----
2024-07-18 08:24 amSSW 9.9 13.0----30.15- 57.4 58.6----
2024-07-18 08:18 amSSW 8.9 13.0----30.15- 57.4 58.6----
2024-07-18 08:12 amSSW 8.9 13.0----30.15- 57.4 58.5----
2024-07-18 08:06 am S 9.9 14.0----30.15- 57.6 58.3----
2024-07-18 08:00 am S 12.0 14.0----30.15+0.02 57.4 58.1----
2024-07-18 07:54 am S 11.1 14.0----30.15- 57.4 57.9----
2024-07-18 07:48 am S 9.9 15.0----30.15- 57.4 57.9----
2024-07-18 07:42 am S 9.9 14.0----30.15- 57.2 57.9----
2024-07-18 07:36 am S 8.9 13.0----30.15- 57.2 57.9----
2024-07-18 07:30 amSSW 8.0 14.0----30.15- 57.2 57.9----
2024-07-18 07:24 amSSW 9.9 15.0----30.14- 57.0 57.9----
2024-07-18 07:18 amSSW 12.0 15.0----30.14- 57.2 57.7----
2024-07-18 07:12 amSSW 12.0 14.0----30.14- 57.2 57.6----
2024-07-18 07:06 amSSW 8.9 13.0----30.14- 57.2 57.7----
2024-07-18 07:00 amSSW 8.0 12.0----30.14+0.02 57.4 57.6----
2024-07-18 06:54 amSSW 8.9 13.0----30.14- 57.2 57.6----
2024-07-18 06:48 amSSW 12.0 14.0----30.14- 57.2 57.6----
2024-07-18 06:42 amSSW 11.1 14.0----30.14- 57.4 57.6----
2024-07-18 06:36 amSSW 8.0 9.9----30.14- 57.2 57.6----
2024-07-18 06:30 amSSW 7.0 8.9----30.14- 57.4 57.4----
2024-07-18 06:24 amSSW 6.0 9.9----30.14- 57.4 57.6----
2024-07-18 06:18 am S 8.0 9.9----30.14- 57.4 57.6----
2024-07-18 06:12 am S 8.0 12.0----30.13- 57.2 57.4----
2024-07-18 06:06 am S 8.9 9.9----30.13- 57.0 57.4----
2024-07-18 06:00 am S 8.0 8.9----30.13+0.00 57.0 57.4----
2024-07-18 05:54 am S 8.9 9.9----30.13- 56.8 57.4----
2024-07-18 05:48 am S 8.0 9.9----30.13- 57.0 57.4----
2024-07-18 05:42 am S 8.9 11.1----30.13- 57.2 57.4----
2024-07-18 05:36 am S 8.9 11.1----30.13- 57.0 57.4----
2024-07-18 05:30 am S 9.9 11.1----30.13- 56.8 57.4----
2024-07-18 05:24 am S 7.0 9.9----30.13- 56.8 57.4----
2024-07-18 05:18 amSSE 8.0 9.9----30.13- 56.8 57.6----
2024-07-18 05:12 am S 8.0 11.1----30.13- 56.5 57.6----
2024-07-18 05:06 am S 8.9 11.1----30.13- 56.5 57.6----
2024-07-18 05:00 am S 8.0 9.9----30.13+0.00 56.7 57.6----
2024-07-18 04:54 am S 6.0 8.0----30.13- 56.7 57.6----
2024-07-18 04:48 am S 8.0 9.9----30.13-- 57.7----
2024-07-18 04:42 am S 8.0 11.1----30.13-- 57.7----
2024-07-18 04:36 am S 8.9 9.9----30.13-- 57.7----
2024-07-18 04:30 amSSW 8.0 9.9----30.13- 56.5 57.7----
2024-07-18 04:24 am SW 7.0 11.1----30.13- 56.3 57.7----
2024-07-18 04:18 am SW 6.0 8.9----30.13- 56.5 57.7----
2024-07-18 04:12 am SW 6.0 9.9----30.13- 56.5 57.7----
2024-07-18 04:06 amSSW 7.0 11.1----30.13- 56.7 57.7----
2024-07-18 04:00 am SW 6.0 8.9----30.13+0.00 56.7 57.7----
2024-07-18 03:54 am SW 7.0 8.9----30.12- 56.8 57.7----
2024-07-18 03:48 am SW 6.0 8.9----30.12- 57.0 57.7----
2024-07-18 03:42 am SW 5.1 8.0----30.12- 57.0 57.7----
2024-07-18 03:36 am SW 6.0 8.9----30.12- 57.0 57.6----
2024-07-18 03:30 amSSW 7.0 9.9----30.12- 57.0 57.6----
2024-07-18 03:24 am SW 5.1 9.9----30.12- 57.2 57.6----
2024-07-18 03:18 am SW 6.0 9.9----30.12- 57.2 57.6----
2024-07-18 03:12 amSSW 6.0 8.0----30.12- 57.2 57.7----
2024-07-18 03:06 am S 7.0 11.1----30.12- 57.0 57.6----
2024-07-18 03:00 am SW 7.0 9.9----30.12+0.00 57.2 57.6----
2024-07-18 02:54 am SW 8.0 9.9----30.12- 57.0 57.6----
2024-07-18 02:48 amWSW 6.0 8.0----30.12- 57.2 57.6----
2024-07-18 02:42 am SW 7.0 9.9----30.12- 57.2 57.4----
2024-07-18 02:36 amWSW 5.1 8.9----30.12- 57.2 57.2----
2024-07-18 02:30 am SW 5.1 8.9----30.12- 57.4 57.2----
2024-07-18 02:24 am SW 5.1 9.9----30.12- 57.2 57.6----
2024-07-18 02:18 am SW 7.0 9.9----30.12- 57.2 57.7----
2024-07-18 02:12 am SW 6.0 9.9----30.12- 57.0 57.9----
2024-07-18 02:06 am SW 7.0 9.9----30.12- 57.0 57.7----
2024-07-18 02:00 am SW 5.1 8.9----30.12+0.00 57.2 57.7----
2024-07-18 01:54 am SW 5.1 8.9----30.12- 57.0 57.4----
2024-07-18 01:48 am SW 7.0 9.9----30.12-- 57.2----
2024-07-18 01:42 am SW 6.0 9.9----30.12-- 57.2----
2024-07-18 01:36 am SW 6.0 11.1----30.13-- 56.8----
2024-07-18 01:30 am SW 7.0 9.9----30.13- 57.2 57.2----
2024-07-18 01:24 am SW 7.0 9.9----30.13- 57.2 56.8----
2024-07-18 01:18 am SW 5.1 11.1----30.13- 57.2 56.8----
2024-07-18 01:12 am SW 7.0 9.9----30.13- 57.2 57.0----
2024-07-18 01:06 amSSW 5.1 12.0----30.13- 57.4 57.0----
2024-07-18 01:00 amSSW 7.0 9.9----30.13+0.01 57.4 57.0----
2024-07-18 12:54 amSSW 8.0 12.0----30.13- 57.2 56.8----
2024-07-18 12:48 am SW 8.0 11.1----30.13- 57.2 56.8----
2024-07-18 12:42 am SW 7.0 8.9----30.13- 57.4 57.0----
2024-07-18 12:36 amSSW 5.1 8.9----30.13- 57.6 56.7----
2024-07-18 12:30 amSSW 5.1 8.9----30.13- 57.4 56.5----
2024-07-18 12:24 am SW 5.1 8.9----30.13- 57.2 56.5----
2024-07-18 12:18 am SW 6.0 11.1----30.13- 57.0 56.3----
2024-07-18 12:12 amSSW 8.0 11.1----30.12- 56.8 56.1----
2024-07-18 12:06 am SW 7.0 9.9----30.12- 56.8 56.1----
2024-07-18 12:00 amSSW 6.0 11.1----30.12+0.00 56.8 56.1----
2024-07-17 11:54 pmSSW 7.0 12.0----30.12- 56.8 55.9----
2024-07-17 11:48 pmSSW 8.9 11.1----30.12- 56.8 55.8----
2024-07-17 11:42 pmSSW 7.0 9.9----30.12- 56.7 55.9----
2024-07-17 11:36 pmSSW 6.0 8.0----30.12- 56.5 55.8----
2024-07-17 11:30 pmSSW 6.0 8.9----30.12- 56.5 55.8----
2024-07-17 11:24 pmSSW 5.1 8.9----30.12- 56.7 55.8----
2024-07-17 11:18 pmSSW 7.0 9.9----30.12- 56.8 55.6----
2024-07-17 11:12 pmSSW 8.0 9.9----30.12- 56.8 55.4----
2024-07-17 11:06 pmSSW 6.0 8.9----30.12- 56.7 55.6----
2024-07-17 11:00 pm SW 5.1 7.0----30.12+0.00 56.7 55.6----
2024-07-17 10:54 pmSSW 5.1 8.0----30.12- 56.8 55.8----
2024-07-17 10:48 pmSSW 5.1 8.0----30.12- 56.8 55.9----
2024-07-17 10:42 pmSSW 6.0 8.0----30.12- 56.8 55.9----
2024-07-17 10:36 pmSSW 5.1 8.0----30.12- 56.8 55.9----
2024-07-17 10:30 pmSSW 6.0 8.9----30.12- 57.0 56.1----
2024-07-17 10:24 pmSSW 7.0 8.9----30.12- 57.0 56.3----
2024-07-17 10:18 pmSSW 6.0 8.0----30.12- 57.0 56.5----
2024-07-17 10:12 pmSSW 5.1 6.0----30.12- 57.2 56.5----
2024-07-17 10:06 pmSSW 6.0 8.0----30.12- 57.4 56.5----
2024-07-17 10:00 pmSSW 5.1 7.0----30.12+0.00 57.4 56.7----
2024-07-17 09:54 pmSSW 6.0 7.0----30.12- 57.2 56.7----